TimeEST,TemperatureF,Dew PointF,Humidity,Sea Level PressureIn,VisibilityMPH,Wind Direction,Wind SpeedMPH,Gust SpeedMPH,PrecipitationIn,Events,Conditions,WindDirDegrees,DateUTC
12:27 AM,44.6,33.8,66,30.16,10.0,NW,10.4,19.6,N/A,,Overcast,310,2013-01-18 05:27:00
12:52 AM,43.0,34.0,71,30.17,10.0,NW,9.2,-,N/A,,Scattered Clouds,320,2013-01-18 05:52:00
1:52 AM,43.0,34.0,71,30.19,10.0,Variable,6.9,16.1,N/A,,Overcast,0,2013-01-18 06:52:00
2:52 AM,43.0,35.1,74,30.20,10.0,NW,5.8,-,N/A,,Overcast,320,2013-01-18 07:52:00
3:52 AM,43.0,36.0,76,30.21,10.0,NNW,6.9,-,N/A,,Overcast,330,2013-01-18 08:52:00
4:52 AM,45.0,37.0,74,30.22,10.0,NNW,9.2,-,N/A,,Overcast,340,2013-01-18 09:52:00
5:52 AM,46.0,39.0,76,30.25,10.0,North,9.2,-,N/A,,Overcast,350,2013-01-18 10:52:00
6:52 AM,46.9,41.0,80,30.27,10.0,NNW,8.1,-,N/A,,Overcast,340,2013-01-18 11:52:00
7:09 AM,48.2,42.8,82,30.28,10.0,NNE,21.9,27.6,N/A,,Overcast,30,2013-01-18 12:09:00
7:52 AM,53.1,43.0,69,30.30,10.0,NNE,24.2,33.4,0.02,,Mostly Cloudy,30,2013-01-18 12:52:00
8:21 AM,53.6,42.8,67,30.32,10.0,NNE,25.3,36.8,N/A,,Mostly Cloudy,30,2013-01-18 13:21:00
8:52 AM,54.0,44.1,69,30.33,10.0,NNE,24.2,32.2,N/A,,Mostly Cloudy,30,2013-01-18 13:52:00
9:52 AM,54.0,44.1,69,30.37,10.0,NNE,25.3,32.2,N/A,,Mostly Cloudy,30,2013-01-18 14:52:00
10:52 AM,55.0,44.1,67,30.39,10.0,NNE,21.9,31.1,N/A,,Mostly Cloudy,30,2013-01-18 15:52:00
11:52 AM,55.9,44.1,64,30.38,10.0,NE,23.0,32.2,N/A,,Mostly Cloudy,40,2013-01-18 16:52:00
12:52 PM,55.9,44.1,64,30.37,10.0,NNE,25.3,31.1,N/A,,Mostly Cloudy,20,2013-01-18 17:52:00
1:52 PM,55.9,44.1,64,30.37,10.0,NNE,21.9,29.9,N/A,,Mostly Cloudy,20,2013-01-18 18:52:00
2:52 PM,55.9,43.0,62,30.37,10.0,NNE,23.0,29.9,N/A,,Mostly Cloudy,20,2013-01-18 19:52:00
3:52 PM,55.9,41.0,57,30.37,10.0,NNE,21.9,32.2,N/A,,Mostly Cloudy,20,2013-01-18 20:52:00
4:52 PM,55.0,41.0,59,30.39,10.0,NNE,20.7,28.8,N/A,,Scattered Clouds,30,2013-01-18 21:52:00
5:52 PM,54.0,42.1,64,30.40,10.0,NNE,19.6,29.9,N/A,,Scattered Clouds,30,2013-01-18 22:52:00
6:52 PM,54.0,43.0,66,30.41,10.0,NNE,20.7,29.9,N/A,,Overcast,30,2013-01-18 23:52:00
7:52 PM,54.0,44.1,69,30.40,10.0,NNE,19.6,26.5,N/A,,Mostly Cloudy,30,2013-01-19 00:52:00
8:52 PM,55.0,44.1,67,30.40,10.0,NNE,23.0,29.9,N/A,,Partly Cloudy,30,2013-01-19 01:52:00
9:52 PM,55.0,46.0,72,30.40,10.0,NNE,20.7,29.9,N/A,,Mostly Cloudy,30,2013-01-19 02:52:00
10:52 PM,55.9,46.9,72,30.37,10.0,NNE,18.4,27.6,N/A,,Overcast,20,2013-01-19 03:52:00
11:52 PM,55.9,48.0,75,30.36,10.0,NNE,17.3,27.6,N/A,,Overcast,20,2013-01-19 04:52:00